OpenBCM V1.07b12 (Linux)

Packet Radio Mailbox

DB0FHN

[JN59NK Nuernberg]

 Login: GUEST





  
CX7BY  > KEPS     18.04.03 05:20l 112 Lines 2844 Bytes #999 (0) @ AMSAT
BID : ORB03107.M
Read: DB0FHN GUEST
Subj: Orbital Elements  03107.MISC
Path: DB0FHN<DB0RGB<DB0MRW<DB0HOT<OK0PBX<OK0PHL<OK0PPL<RZ6HXA<WA7V<W7NTF<
      KD4GBA<CX7BY
Sent: 030418/0304Z @:CX7BY.MVD.URY.SA #:36334 [Montevideo] FBB $:ORB03107.M
From: CX7BY@CX7BY.MVD.URY.SA
To  : KEPS@AMSAT


HR AMSAT ORBITAL ELEMENTS FOR MANNED AND MISCELLANEOUS SATELLITES
FROM WA5QGD FORT WORTH,TX April 17, 2003
SEND SUBSCRIBE/UNSUBSCRIBE TO majordomo@amsat.org ONLY
BID: ORB03107.M
TO ALL RADIO AMATEURS BT

Satellite: HUBBLE
Catalog number: 20580
Epoch time:      03107.13229966
Element set:     396
Inclination:       28.4682 deg
RA of node:        24.0413 deg
Eccentricity:    0.0004537
Arg of perigee:   159.5975 deg
Mean anomaly:     341.1301 deg
Mean motion:   14.98062709 rev/day
Decay rate:      -1.83e-06 rev/day^2
Epoch rev:           51127
Checksum:              283

Satellite: UARS
Catalog number: 21701
Epoch time:      03107.43081317
Element set:     872
Inclination:       56.9803 deg
RA of node:       157.8309 deg
Eccentricity:    0.0004770
Arg of perigee:    82.0280 deg
Mean anomaly:     278.1273 deg
Mean motion:   15.02984396 rev/day
Decay rate:       2.05e-06 rev/day^2
Epoch rev:           63441
Checksum:              279

Satellite: PO-34
Catalog number: 25520
Epoch time:      03106.57790866
Element set:    0668
Inclination:      028.4629 deg
RA of node:       204.0514 deg
Eccentricity:    0.0006154
Arg of perigee:   252.9469 deg
Mean anomaly:     107.0436 deg
Mean motion:   15.14181199 rev/day
Decay rate:      1.647e-05 rev/day^2
Epoch rev:           24623
Checksum:              304

Satellite: ISS
Catalog number: 25544
Epoch time:      03107.78522128
Element set:     902
Inclination:       51.6332 deg
RA of node:       323.6481 deg
Eccentricity:    0.0006482
Arg of perigee:    29.6746 deg
Mean anomaly:      23.0717 deg
Mean motion:   15.58210703 rev/day
Decay rate:     1.8179e-04 rev/day^2
Epoch rev:           25158
Checksum:              284

Satellite: WO-39
Catalog number: 26061
Epoch time:      03107.54411154
Element set:     814
Inclination:      100.1950 deg
RA of node:       175.3417 deg
Eccentricity:    0.0035895
Arg of perigee:   115.8038 deg
Mean anomaly:     244.6853 deg
Mean motion:   14.37898365 rev/day
Decay rate:       3.92e-06 rev/day^2
Epoch rev:           16886
Checksum:              315

Satellite: OO-38
Catalog number: 26063
Epoch time:      03107.19759821
Element set:     764
Inclination:      100.2019 deg
RA of node:       172.1985 deg
Eccentricity:    0.0037334
Arg of perigee:   124.0573 deg
Mean anomaly:     236.4152 deg
Mean motion:   14.35507139 rev/day
Decay rate:        8.5e-07 rev/day^2
Epoch rev:           16865
Checksum:              297

Satellite: NO-45
Catalog number: 26932
Epoch time:      03107.86229051
Element set:     446
Inclination:       67.0537 deg
RA of node:       105.2309 deg
Eccentricity:    0.0003984
Arg of perigee:   264.1523 deg
Mean anomaly:      95.9124 deg
Mean motion:   14.29317559 rev/day
Decay rate:        4.0e-07 rev/day^2
Epoch rev:            8070
Checksum:              290




Read previous mail | Read next mail


 17.09.2025 21:23:12lGo back Go up